User: anonymous
Location: Bismarck
(46.7731°N, 100.8200°W)
Time: 10:10:21
(UTC-05:00)
Language:

Cosmos 1125 Rocket - Orbit

View from above orbital plane
View from above orbital plane
View from above satellite
View from above satellite

Ground track
Ground track

The orbit data is extracted from the following two-line orbital elements,

1 11511U 79078B   14210.27799999  .00000098  00000-0  42265-4 0  8460
2 11511 074.0370 092.0197 0016522 235.6131 263.7786 14.36431234827284
Epoch (UTC): 29 July 2014 06:40:19
Eccentricity: 0.0016522
inclination: 74.0370°
perigee height: 758 km
apogee height: 782 km
right ascension of ascending node: 92.0197°
argument of perigee: 235.6131°
revolutions per day: 14.36431234
mean anomaly at epoch: 263.7786°
orbit number at epoch: 82728

The dashed part of the orbit path shows where the satellite is in the earth's shadow,  

DLR